Погода Жигалово

Погода Жигалово : погода сейчас, прогноз погоды и архив. Всё, что Вы хотите узнать о погоде Жигалово!

Хотите узнать прогноз погоды Жигалово? Тогда Вам сюда: Погода Жигалово

Поиск расширенной информации на нашем сайте:

Другие новости

Новости СМИ2

Главная страница сайта

Новости сайта

03.07.2017

Напоминаем, что на нашем специализированном сайте Метеоцентр.Азия вы можете получить высокодетализированные автоматические прогнозы погоды по пунктам России, СНГ и мира в авиационном формате (включающие направление и скорость ветра, видимость, явления погоды, количество и форму облачности, нижнюю и верхнюю границу облачности).


Погода Жигалово - сегодня

Время (UTC), дата Ветер
(°,м/с) 
Видим.   Явления Облачность Т
(°С)
Тd
(°С)
f(%) Тe
(°С)
Pmin
(гПа)
dP
(гПа)
Po
(мм)
O2
(г/м3)
Тmin Tmax R s Состояние
почвы
03 20.10.17 070 (В) 20000 м    ясно 
-3.2 -9.3 63 -5  1029.6  -0.4  733  300           
06 20.10.17 060 (СВ) 20000 м    ясно 
+1.8 -8.6 46 1026.4  -2.1  731  293           
09 20.10.17 060 (СВ) 20000 м    3/0 верхняя 
[Ci fib]
+2 -9.1 44 +1  1024.1  -2.1  729  293           
12 20.10.17 090 (В) н/о    3/0 верхняя 
[Ci fib]
-1.5 -10.8 49 -3  1024.7  -0.1  729  296    +3.2       
15 20.10.17 080 (В) н/о    3/0 верхняя 
[Ci fib]
-3 -12.9 46 -5  1025.4  0.3  730  298           
18 20.10.17 100 (В) н/о    ясно 
-6.1 -12.9 59 -8  1026  730  302           
21 20.10.17 тихо ()   н/о    ясно 
-11 -13.5 82 -11  1027.1  0.1  730  307           
00 21.10.17 тихо ()   20000 м    10/0 верхняя 
[Cs]
-9.7 -12.3 81 -10  1027  0.2  730  306  -11.8         
03 21.10.17 тихо ()   10 км  слаб. ливневой снег  10/4 1000 м кучево-дожд., средняя 
[Cb cap|Ac und]
-6.9 -10.3 77 -7  1027  0.5  730  303           
06 21.10.17 040 (СВ) 20000 м  {ливн. осадки}  10/3 1000 м кучево-дожд., средняя 
[Cb cap|Ac und]
-3.6 -8.8 67 -3  1025.8  -0.5  730  299           
09 21.10.17 110 (В) 20000 м    10/4 1000 м кучево-дожд., средняя, верхняя 
[Cb cap|Ac trans|Ci fib]
-1.1 -7.5 62 -1  1025.1  -0.2  730  296           
12 21.10.17 030 (СВ) н/о    3/0 верхняя 
[Ci fib]
-5.9 -8.4 82 -6  1026.2  0.2  730  301    -1  0.0     
15 21.10.17 тихо ()   н/о    3/0 верхняя 
[Ci fib]
-8.6 -10.2 88 -9  1026.1  -0.7  729  304           
18 21.10.17 080 (В) н/о    6/6 600 м кучево-дожд. 
[Cb cap]
-4.4 -6.1 88 -6  1024.2  -0.9  729  299           
21 21.10.17 080 (В) н/о    6/6 600 м кучево-дожд. 
[Cb cap]
-4.1 -5.9 87 -5  1022.6  -1.4  728  298           
00 22.10.17 070 (В) 10 км    10/10 600 м кучево-дожд. 
[Cb cap]
-2.9 -4.6 88 -4  1021.5  -0.9  727  296  -8.8         
03 22.10.17 090 (В) 10 км    10/6 1000 м кучево-дожд., средняя, верхняя 
[Cb cap|Ac trans|Ci fib]
+0.6 -3 77 +1  1020.9  727  293           
06 22.10.17 100 (В) 10 км    10/6 1000 м средняя, верхняя 
[Sc|Ac trans|Ci fib]
+4.2 -2.5 62 +5  1019.1  -1  726  288           
09 22.10.17 080 (В) 10 км    10/6 1000 м средняя, верхняя 
[Sc|Ac trans|Ci fib]
+3.1 -2.3 68 +4  1018.3  -0.9  725  289           
12 22.10.17 110 (В) н/о    4/0 верхняя 
[Ci fib]
-2.6 -4.1 89 -2  1019.3  -0.1  725  295    +4.3       
15 22.10.17 270 (З) н/о    4/0 верхняя 
[Ci fib]
-5.2 -6.2 93 -5  1018.9  -0.9  725  298           
18 22.10.17 тихо ()   н/о    ясно 
-6 -6.8 94 -6  1017.8  -1.2  724  299           
21 22.10.17 270 (З) н/о    ясно 
-7.2 -8.2 93 -7  1017  -1  723  300           
00 23.10.17 тихо ()   0500 м  туман  ?/?  
-5.2 -6 94 -5  1017.3  0.7  724  298  -7.5         
03 23.10.17 330 (СЗ) 20000 м  в посл. час туман  10/0 средняя 
[Ac und]
-2.9 -3.7 94 -2  1017.5  0.6  724  295           
Время (UTC), дата Ветер
(°,м/с) 
Видим.   Явления Облачность Т
(°С)
Тd
(°С)
f(%) Тe
(°С)
Pmin
(гПа)
dP
(гПа)
Po
(мм)
O2
(г/м3)
Тmin Tmax R s Состояние
почвы

Для получения пояснительной информации подведите курсор к названию столбца.

ПОГОДА Жигалово - архив

Всё, что Вы хотите узнать о погоде Жигалово - удобно и подробно!

Выберите нужную дату (начиная с 1 января 2015* года) и нажмите кнопку "Найти".
Будут отображены архивные сводки погоды по пункту Жигалово, начиная с указанной даты.


Отображать данные в формате CSV (для использования в таблицах Excel)


Внимание! Наш архив погоды предназначен исключительно для личного некоммерческого использования в познавательных целях. Если Вам необходимы официальные справки о состоянии погоды (для производственных, юридических, коммерческих и т.п. целей), обращайтесь в органы Росгидромета.

*Примечание: данная дата относится к архиву по метеостанциям СССР (Россия, СНГ, Балтия).
Архив по метеостанциям Зарубежной Европы и Азии (кроме Китая) хранится 10 дней, по другим регионам земного шара (Китай, Африка, Америка, Австралия, Океания) - 1 день.

Жигалово - район местоположения метеостанции


Название, широта, долгота, высота метеостанции:
Жигалово 54.8°ш. 105.2°д. 426 м над ур. моря [Российская Федерация]

Дополнительная информация

В oтличие oт бoльшинства пoгoдных сайтoв мы публикуем пoдрoбную метеoинфoрмацию в детальнoм прoфессиoнальнoм фoрмате.

Характеристики температуры и влажнoсти вoздуха измеряются на высoте 2 м в тени вдали oт зданий и деревьев.
Скoрoсть ветра измеряется на высoте 10 м (на урoвне рoста челoвека скoрoсть ветра ниже в 1.5-2 раза). Если метеoстанция нахoдится в гoрoде или в лесу, тo скoрoсть ветра занижена на 2-4 м/с пo сравнению с oткрытым местoм. Скoрoсть ветра над акватoриями крупных рек и oзёр, а также на вершинах хoлмoв на 2-5 м/с выше, чем в oбычных услoвиях.
Атмoсфернoе давление в разных тoчках местнoсти мoжет значительнo oтличаться oт давления на метеoстанции, в зависимoсти oт услoвий рельефа (при пoдъёме на 10 м давление пoнижается примернo на 1 мм рт.ст.).